SCP
-0 -0 -0 -0 -0 -0 -0 0 0 0 -0 0 0 -0 -0 -0 -0 -0 -0 -0 -0 -0 -0 -0 -0 -0 0 0 0 0 0 0 0 0 0 0 0 0 0 0 0 0 0
-0 -0 -0 -0 -0 -0 -0 -0 -0 -0 0 0 0 -0 -0 -0 -0 -0 -0 -0 -0 -0 -0 -0 -0 -0 -0 -0 -0 -0 0 0 0 0 0 0 0 0 0 0 0 0 0
-0 -0 -0 -0 -1 -0 -0 -0 -0 0 0 -0 0 0 0 -0 -0 -0 -0 0 0 0 0 0 0 0 0 0 -0 -0 -0 -0 -0 -0 0 0 0 0 0 0 0 0 0
-0 -0 0 -0 -0 -0 -0 -0 -0 -0 -0 0 0 0 0 0 0 0 0 0 0 0 0 0 0 0 0 0 0 -0 -0 -0 -0 -0 0 0 -0 0 0 0 0 0 0
-0 -0 -0 -0 -0 -0 -0 -0 -0 -0 -0 0 0 0 0 0 0 0 0 0 0 0 0 0 0 0 0 0 0 0 -0 -0 -0 -0 0 -0 0 0 0 0 0 0 0
0 0 -0 -0 -0 -0 -0 -0 -0 -0 -0 -0 0 0 0 0 0 0 0 0 0 0 0 0 0 0 0 0 0 0 0 0 -0 -0 -0 0 0 0 0 0 0 0 0
0 0 0 -0 -0 -0 -0 -0 -0 -0 -0 0 0 0 0 0 0 0 0 0 0 0 0 0 0 0 0 0 0 0 0 0 0 0 0 0 0 0 0 0 0 0 0
0 0 0 0 -0 -0 -0 -0 -0 -0 0 0 0 1 1 0 0 0 0 0 0 0 0 0 0 0 0 0 0 0 0 0 0 -0 0 0 0 0 0 0 0 0 0
0 0 0 0 0 0 -0 -0 -0 -0 0 0 0 1 0 0 0 0 0 0 0 0 0 0 0 0 0 0 0 0 0 0 0 0 0 0 0 0 0 0 0 0 0
1 1 1 0 0 0 0 0 0 0 0 0 0 0 0 0 0 0 0 0 0 0 0 0 0 0 0 0 0 0 0 0 0 0 0 0 0 0 0 0 0 0 1
1 1 0 0 0 0 0 0 0 0 0 0 0 0 0 0 0 0 0 0 0 0 0 0 0 0 0 0 0 0 0 0 0 -0 0 1 1 0 0 0 1 1 1
1 1 1 0 0 0 0 0 0 0 0 0 0 0 0 0 0 0 0 0 0 0 1 0 0 1 0 0 0 0 0 0 0 0 0 1 1 1 0 0 1 1 1
0 3 1 0 0 0 0 0 0 0 0 0 0 0 0 0 0 0 0 0 0 0 0 1 1 1 0 0 0 0 0 0 0 0 0 0 1 1 0 0 0 1 1
0 1 1 0 0 0 0 0 0 0 0 0 0 0 0 0 0 0 0 0 0 0 0 0 0 1 0 0 0 0 1 1 0 0 1 1 1 1 0 0 0 0 0
0 -0 0 0 0 0 0 0 0 0 0 0 0 0 0 0 0 0 0 0 0 0 0 0 0 0 0 0 0 0 1 1 0 1 1 1 1 1 0 0 0 0 0
0 0 1 2 1 1 0 1 1 1 0 0 0 0 0 0 0 0 0 0 0 0 0 0 0 0 0 0 0 0 1 0 0 0 1 1 1 1 1 1 0 0 0
0 0 1 1 2 3 1 2 2 1 1 1 1 0 0 0 0 0 0 0 0 0 0 0 0 0 1 1 0 0 1 1 1 1 1 1 1 1 1 1 0 0 0
0 0 0 1 2 2 2 2 3 4 4 2 2 1 1 0 0 0 0 0 0 0 0 0 0 0 1 0 0 1 1 1 1 1 0 1 1 1 1 0 0 0 0
0 0 0 0 4 3 2 4 4 3 3 3 3 3 2 1 1 0 0 0 0 0 0 0 0 0 0 0 1 1 1 1 1 1 1 1 1 1 0 0 0 0 0
0 0 1 1 4 6 5 5 4 4 3 3 2 2 3 3 2 1 1 1 0 0 0 0 0 0 0 1 1 1 1 1 1 1 1 0 0 0 1 0 0 0 0
0 1 1 1 2 7 7 6 4 3 3 2 2 2 1 5 4 2 1 2 2 1 0 1 0 0 1 1 1 1 1 1 1 1 0 0 0 0 0 0 0 0 0
0 0 0 0 0 0 0 1 1 1 0 0 0 1 1 5 5 3 3 4 2 2 1 0 1 0 1 1 1 1 1 0 0 1 1 0 0 1 0 0 0 0 0
0 0 1 0 0 0 0 0 1 0 0 1 2 1 2 5 5 4 4 2 2 1 1 1 1 0 1 1 1 1 1 1 0 0 0 0 0 1 0 0 0 0 0
0 0 0 0 0 0 0 0 1 1 0 0 0 2 4 5 5 5 3 2 1 1 1 1 1 0 0 1 1 1 1 0 0 0 0 0 0 0 0 0 0 0 0
0 0 0 0 0 0 0 0 0 1 0 0 1 2 3 4 4 4 3 2 2 1 1 1 1 1 0 1 1 0 0 0 0 0 0 0 0 0 0 0 0 0 0
0 0 0 0 0 0 0 1 0 0 1 1 2 2 3 4 3 3 3 2 1 1 1 1 1 0 1 1 1 0 0 0 0 0 0 0 0 0 0 0 0 0 0
Wind_Speed_500mb
64 60 56 51 46 45 49 51 53 50 48 48 44 39 33 31 30 28 26 24 19 17 13 10 6 3 1 1 3 4 5 6 5 4 4 4 0 4 6 2 4 4 6
68 63 59 53 47 47 49 50 52 51 47 46 44 40 34 30 28 27 25 24 21 20 17 16 12 10 10 9 6 4 2 2 2 2 2 5 10 5 7 4 6 3 4
66 67 61 53 48 47 49 48 49 48 45 41 39 36 34 29 26 24 23 21 20 19 18 18 16 16 15 15 14 13 13 11 12 16 16 13 9 7 10 11 7 6 8
68 68 62 52 48 47 46 47 46 44 41 38 34 31 28 26 23 21 19 17 16 15 16 15 15 15 15 14 15 16 16 17 24 26 17 7 5 3 7 11 10 5 5
64 66 61 55 48 46 44 44 44 41 38 36 33 31 28 25 22 19 16 15 12 11 10 10 10 11 12 11 12 14 16 17 23 21 18 8 4 9 12 13 15 11 6
65 63 59 54 48 43 42 42 40 39 37 36 33 31 29 26 23 20 18 15 13 11 8 7 6 4 7 8 9 10 10 12 17 12 12 4 9 14 23 17 17 18 12
68 64 59 53 49 42 39 39 38 36 35 35 34 33 30 29 26 24 21 18 17 15 13 10 8 4 1 4 6 5 4 6 12 14 14 5 21 17 17 19 21 23 21
71 69 62 55 48 44 40 37 37 37 37 37 36 36 34 32 31 29 27 24 22 21 20 17 12 8 5 3 4 4 3 2 5 17 11 5 18 23 20 19 23 22 24
68 70 66 60 52 46 43 39 38 39 39 39 38 38 38 37 37 36 33 32 30 29 27 25 19 17 13 11 9 9 7 8 7 13 17 14 7 27 23 20 25 22 24
64 65 63 59 54 50 47 44 42 42 42 42 42 41 42 43 45 42 41 39 37 36 35 32 25 26 20 15 14 11 8 8 9 2 17 20 11 16 21 24 28 24 24
49 56 54 51 48 45 46 46 45 44 45 45 46 46 48 52 52 50 49 46 44 43 43 38 33 34 26 21 19 15 8 10 8 11 9 15 17 22 26 32 32 27 22
59 59 59 52 45 42 43 44 45 46 48 47 48 50 54 57 58 56 54 54 52 51 51 45 41 42 34 28 24 22 7 5 10 10 12 14 20 27 32 31 34 27 23
41 66 59 48 45 37 34 41 45 49 50 51 53 55 57 61 64 63 62 61 61 59 61 55 52 51 40 34 28 27 15 12 15 11 14 22 30 30 32 30 32 25 25
52 30 53 25 35 37 34 38 39 46 44 45 49 53 60 66 70 69 67 66 65 67 68 62 60 55 46 41 33 34 29 22 23 18 21 32 35 29 27 28 28 25 28
55 55 46 37 42 52 41 35 38 38 38 40 43 45 51 57 65 66 68 67 68 70 66 61 64 61 54 50 44 41 35 26 27 30 40 35 28 29 33 32 29 25 28
37 39 34 26 43 55 44 36 36 43 41 44 47 47 45 44 48 52 54 59 63 67 65 57 58 58 59 60 49 42 38 46 48 42 44 44 46 41 36 28 27 24 22
27 24 21 27 33 46 46 44 35 42 49 49 53 52 51 51 54 54 51 47 53 58 61 54 50 49 53 56 56 54 48 43 35 46 45 45 46 46 41 33 29 23 24
55 49 41 37 41 41 46 45 43 47 53 61 62 60 58 55 58 60 59 58 46 51 60 61 52 50 49 56 55 49 45 44 43 54 53 53 50 48 45 33 28 24 28
66 58 57 58 54 50 47 47 46 46 50 62 68 69 68 61 59 66 68 64 53 50 60 68 57 54 50 55 49 41 47 50 51 55 53 52 49 43 43 37 30 28 34
70 71 73 63 59 58 55 50 49 53 56 54 62 66 65 63 64 71 74 70 58 56 61 67 66 61 56 59 60 56 49 46 47 53 54 46 38 35 39 36 35 40 35
66 67 72 77 70 67 61 58 55 64 67 63 66 65 67 70 69 70 75 69 64 60 59 67 70 64 65 61 54 48 54 44 55 51 46 37 36 39 37 36 37 39 38
75 61 66 70 73 68 62 60 56 57 69 71 73 77 64 65 68 71 72 68 64 60 63 61 67 70 60 65 56 47 40 52 58 56 46 41 39 39 35 39 42 39 39
81 63 62 66 69 67 61 58 59 60 68 69 67 54 61 64 62 66 71 64 59 58 63 69 62 70 68 59 58 53 27 28 19 26 28 41 46 37 33 32 41 45 40
63 56 61 58 59 53 53 61 63 66 67 66 69 68 55 69 61 62 62 60 52 51 60 63 60 65 56 61 60 56 59 26 7 9 21 26 31 31 34 34 33 41 39
70 65 64 58 55 59 66 69 69 68 66 63 58 58 60 65 61 58 58 55 48 48 51 52 57 62 68 58 58 56 43 43 38 34 25 22 25 25 30 28 31 34 32
69 65 58 58 63 62 65 68 75 73 66 58 57 54 57 60 61 55 53 47 46 49 44 47 49 47 49 59 56 46 37 35 29 26 27 25 26 28 22 18 22 28 34
Wind_Direction_500mb
162 161 152 148 147 147 141 136 132 131 131 130 130 129 128 127 123 119 116 110 108 104 102 101 102 111 116 153 211 227 236 240 235 223 215 204 160 29 355 353 163 104 71
154 162 153 151 150 152 150 146 141 138 138 138 137 136 135 133 130 125 119 114 108 103 95 90 87 84 78 73 70 63 62 77 86 88 100 110 92 50 352 319 246 177 181
158 160 155 155 156 156 155 156 149 146 145 145 144 144 143 143 139 133 129 123 121 117 109 101 94 86 81 77 74 71 70 74 86 90 87 83 118 44 8 300 261 234 224
161 158 157 158 162 160 159 164 159 156 153 153 154 157 156 154 152 146 140 137 132 122 113 109 105 99 89 82 79 80 79 85 106 102 90 77 227 246 327 303 272 231 234
166 159 160 162 167 165 165 167 168 167 166 168 170 171 173 172 173 165 163 155 146 131 119 108 97 88 83 85 82 83 88 103 124 124 112 55 319 273 287 292 262 257 229
168 162 161 166 170 172 173 172 171 174 179 182 185 188 186 186 188 188 191 183 179 174 167 153 128 95 74 62 58 71 90 118 133 129 96 140 288 337 271 285 279 239 240
167 163 166 173 175 178 180 180 180 183 187 193 198 202 202 202 202 205 208 207 207 205 208 203 195 179 98 42 23 20 66 138 161 154 146 230 253 311 326 323 293 253 225
167 165 170 178 183 185 187 189 190 192 197 201 207 211 214 215 216 216 217 221 224 223 223 223 222 220 233 273 280 295 315 289 208 182 196 205 272 295 310 322 322 270 229
171 169 174 181 185 192 195 197 198 202 205 210 214 219 224 225 225 225 225 227 229 230 231 228 224 232 231 237 260 272 298 305 289 227 227 241 284 268 276 297 321 295 245
176 176 178 183 186 193 198 202 205 209 212 216 220 225 229 233 232 230 232 233 233 235 236 234 229 233 234 248 258 266 277 300 293 227 208 248 289 276 275 295 307 304 253
185 183 186 188 190 199 205 208 211 215 220 223 225 228 232 235 236 234 236 238 239 240 241 238 233 237 234 240 255 259 273 322 270 196 201 237 259 275 290 302 305 300 260
191 190 195 195 197 205 213 215 220 224 227 231 233 235 237 239 240 240 240 241 242 243 244 241 237 239 235 238 246 250 275 304 216 246 264 268 270 282 294 304 309 291 254
209 193 191 190 200 204 219 224 223 229 233 236 240 243 245 244 244 243 243 240 242 242 244 240 238 240 238 241 247 252 229 244 224 291 280 272 271 275 287 299 316 288 243
162 246 194 181 230 221 223 239 235 227 230 236 243 246 248 248 247 248 248 248 246 247 247 246 245 244 242 244 247 249 232 223 245 260 260 260 262 268 278 294 316 294 242
180 183 190 242 221 239 225 244 242 241 241 245 246 246 248 252 253 251 253 254 254 253 250 250 250 248 245 246 246 236 234 237 237 250 248 261 257 270 287 288 300 299 251
196 188 211 203 212 217 228 243 250 253 252 252 247 250 254 259 262 258 255 253 255 258 258 254 253 256 251 245 247 242 239 266 241 243 247 254 262 269 276 284 298 300 272
205 197 210 219 212 223 228 231 249 260 257 248 247 253 261 266 272 272 268 258 251 258 259 256 250 253 249 244 243 247 237 244 240 239 248 253 258 265 267 268 273 277 275
245 252 244 231 211 227 229 233 237 248 251 246 247 252 256 263 271 272 270 269 257 253 248 251 246 241 243 235 242 249 250 249 252 239 246 254 263 265 261 264 273 277 276
242 242 249 248 238 237 237 237 244 250 251 249 241 245 250 254 264 269 268 266 261 248 241 241 246 238 238 238 244 239 256 253 254 249 253 269 259 258 256 267 278 274 268
237 246 250 244 237 234 236 230 239 251 254 255 250 250 248 252 256 259 261 258 254 245 238 236 240 240 237 234 239 248 248 256 252 258 271 268 253 258 271 267 267 270 266
247 234 234 232 232 230 228 229 246 254 255 256 259 260 257 254 249 254 255 251 246 243 245 233 237 239 236 233 237 248 249 253 258 263 268 257 248 256 269 265 265 262 266
265 242 222 222 223 226 236 243 250 256 263 264 265 267 265 257 249 246 252 249 240 239 237 235 231 234 234 235 240 241 247 250 259 271 258 254 249 260 272 258 258 254 251
258 233 227 224 232 240 247 258 260 256 259 256 254 252 249 246 246 247 248 246 242 242 238 232 231 232 236 234 234 235 247 251 259 256 260 247 246 258 268 267 258 257 245
260 234 232 233 242 248 252 255 252 255 260 258 253 245 254 238 241 246 248 247 242 248 236 233 231 230 233 234 233 235 234 244 267 275 259 240 247 259 274 280 261 248 235
247 252 240 230 233 246 255 258 261 258 266 268 259 258 243 234 238 241 247 242 242 241 231 234 231 230 235 235 235 244 252 252 253 254 247 249 251 273 280 275 252 237 225
250 245 246 250 256 255 256 259 260 260 258 259 246 239 233 232 233 237 244 241 234 233 226 232 231 234 240 237 237 244 240 240 241 236 238 259 276 288 284 261 222 220 219
Wind_Speed_850mb
64 60 56 51 46 45 49 51 53 50 48 48 44 39 33 31 30 28 26 24 19 17 13 10 6 3 1 1 3 4 5 6 5 4 4 4 0 4 6 2 4 4 6
68 63 59 53 47 47 49 50 52 51 47 46 44 40 34 30 28 27 25 24 21 20 17 16 12 10 10 9 6 4 2 2 2 2 2 5 10 5 7 4 6 3 4
66 67 61 53 48 47 49 48 49 48 45 41 39 36 34 29 26 24 23 21 20 19 18 18 16 16 15 15 14 13 13 11 12 16 16 13 9 7 10 11 7 6 8
68 68 62 52 48 47 46 47 46 44 41 38 34 31 28 26 23 21 19 17 16 15 16 15 15 15 15 14 15 16 16 17 24 26 17 7 5 3 7 11 10 5 5
64 66 61 55 48 46 44 44 44 41 38 36 33 31 28 25 22 19 16 15 12 11 10 10 10 11 12 11 12 14 16 17 23 21 18 8 4 9 12 13 15 11 6
65 63 59 54 48 43 42 42 40 39 37 36 33 31 29 26 23 20 18 15 13 11 8 7 6 4 7 8 9 10 10 12 17 12 12 4 9 14 23 17 17 18 12
68 64 59 53 49 42 39 39 38 36 35 35 34 33 30 29 26 24 21 18 17 15 13 10 8 4 1 4 6 5 4 6 12 14 14 5 21 17 17 19 21 23 21
71 69 62 55 48 44 40 37 37 37 37 37 36 36 34 32 31 29 27 24 22 21 20 17 12 8 5 3 4 4 3 2 5 17 11 5 18 23 20 19 23 22 24
68 70 66 60 52 46 43 39 38 39 39 39 38 38 38 37 37 36 33 32 30 29 27 25 19 17 13 11 9 9 7 8 7 13 17 14 7 27 23 20 25 22 24
64 65 63 59 54 50 47 44 42 42 42 42 42 41 42 43 45 42 41 39 37 36 35 32 25 26 20 15 14 11 8 8 9 2 17 20 11 16 21 24 28 24 24
49 56 54 51 48 45 46 46 45 44 45 45 46 46 48 52 52 50 49 46 44 43 43 38 33 34 26 21 19 15 8 10 8 11 9 15 17 22 26 32 32 27 22
59 59 59 52 45 42 43 44 45 46 48 47 48 50 54 57 58 56 54 54 52 51 51 45 41 42 34 28 24 22 7 5 10 10 12 14 20 27 32 31 34 27 23
41 66 59 48 45 37 34 41 45 49 50 51 53 55 57 61 64 63 62 61 61 59 61 55 52 51 40 34 28 27 15 12 15 11 14 22 30 30 32 30 32 25 25
52 30 53 25 35 37 34 38 39 46 44 45 49 53 60 66 70 69 67 66 65 67 68 62 60 55 46 41 33 34 29 22 23 18 21 32 35 29 27 28 28 25 28
55 55 46 37 42 52 41 35 38 38 38 40 43 45 51 57 65 66 68 67 68 70 66 61 64 61 54 50 44 41 35 26 27 30 40 35 28 29 33 32 29 25 28
37 39 34 26 43 55 44 36 36 43 41 44 47 47 45 44 48 52 54 59 63 67 65 57 58 58 59 60 49 42 38 46 48 42 44 44 46 41 36 28 27 24 22
27 24 21 27 33 46 46 44 35 42 49 49 53 52 51 51 54 54 51 47 53 58 61 54 50 49 53 56 56 54 48 43 35 46 45 45 46 46 41 33 29 23 24
55 49 41 37 41 41 46 45 43 47 53 61 62 60 58 55 58 60 59 58 46 51 60 61 52 50 49 56 55 49 45 44 43 54 53 53 50 48 45 33 28 24 28
66 58 57 58 54 50 47 47 46 46 50 62 68 69 68 61 59 66 68 64 53 50 60 68 57 54 50 55 49 41 47 50 51 55 53 52 49 43 43 37 30 28 34
70 71 73 63 59 58 55 50 49 53 56 54 62 66 65 63 64 71 74 70 58 56 61 67 66 61 56 59 60 56 49 46 47 53 54 46 38 35 39 36 35 40 35
66 67 72 77 70 67 61 58 55 64 67 63 66 65 67 70 69 70 75 69 64 60 59 67 70 64 65 61 54 48 54 44 55 51 46 37 36 39 37 36 37 39 38
75 61 66 70 73 68 62 60 56 57 69 71 73 77 64 65 68 71 72 68 64 60 63 61 67 70 60 65 56 47 40 52 58 56 46 41 39 39 35 39 42 39 39
81 63 62 66 69 67 61 58 59 60 68 69 67 54 61 64 62 66 71 64 59 58 63 69 62 70 68 59 58 53 27 28 19 26 28 41 46 37 33 32 41 45 40
63 56 61 58 59 53 53 61 63 66 67 66 69 68 55 69 61 62 62 60 52 51 60 63 60 65 56 61 60 56 59 26 7 9 21 26 31 31 34 34 33 41 39
70 65 64 58 55 59 66 69 69 68 66 63 58 58 60 65 61 58 58 55 48 48 51 52 57 62 68 58 58 56 43 43 38 34 25 22 25 25 30 28 31 34 32
69 65 58 58 63 62 65 68 75 73 66 58 57 54 57 60 61 55 53 47 46 49 44 47 49 47 49 59 56 46 37 35 29 26 27 25 26 28 22 18 22 28 34
Wind_Direction_850mb
162 161 152 148 147 147 141 136 132 131 131 130 130 129 128 127 123 119 116 110 108 104 102 101 102 111 116 153 211 227 236 240 235 223 215 204 160 29 355 353 163 104 71
154 162 153 151 150 152 150 146 141 138 138 138 137 136 135 133 130 125 119 114 108 103 95 90 87 84 78 73 70 63 62 77 86 88 100 110 92 50 352 319 246 177 181
158 160 155 155 156 156 155 156 149 146 145 145 144 144 143 143 139 133 129 123 121 117 109 101 94 86 81 77 74 71 70 74 86 90 87 83 118 44 8 300 261 234 224
161 158 157 158 162 160 159 164 159 156 153 153 154 157 156 154 152 146 140 137 132 122 113 109 105 99 89 82 79 80 79 85 106 102 90 77 227 246 327 303 272 231 234
166 159 160 162 167 165 165 167 168 167 166 168 170 171 173 172 173 165 163 155 146 131 119 108 97 88 83 85 82 83 88 103 124 124 112 55 319 273 287 292 262 257 229
168 162 161 166 170 172 173 172 171 174 179 182 185 188 186 186 188 188 191 183 179 174 167 153 128 95 74 62 58 71 90 118 133 129 96 140 288 337 271 285 279 239 240
167 163 166 173 175 178 180 180 180 183 187 193 198 202 202 202 202 205 208 207 207 205 208 203 195 179 98 42 23 20 66 138 161 154 146 230 253 311 326 323 293 253 225
167 165 170 178 183 185 187 189 190 192 197 201 207 211 214 215 216 216 217 221 224 223 223 223 222 220 233 273 280 295 315 289 208 182 196 205 272 295 310 322 322 270 229
171 169 174 181 185 192 195 197 198 202 205 210 214 219 224 225 225 225 225 227 229 230 231 228 224 232 231 237 260 272 298 305 289 227 227 241 284 268 276 297 321 295 245
176 176 178 183 186 193 198 202 205 209 212 216 220 225 229 233 232 230 232 233 233 235 236 234 229 233 234 248 258 266 277 300 293 227 208 248 289 276 275 295 307 304 253
185 183 186 188 190 199 205 208 211 215 220 223 225 228 232 235 236 234 236 238 239 240 241 238 233 237 234 240 255 259 273 322 270 196 201 237 259 275 290 302 305 300 260
191 190 195 195 197 205 213 215 220 224 227 231 233 235 237 239 240 240 240 241 242 243 244 241 237 239 235 238 246 250 275 304 216 246 264 268 270 282 294 304 309 291 254
209 193 191 190 200 204 219 224 223 229 233 236 240 243 245 244 244 243 243 240 242 242 244 240 238 240 238 241 247 252 229 244 224 291 280 272 271 275 287 299 316 288 243
162 246 194 181 230 221 223 239 235 227 230 236 243 246 248 248 247 248 248 248 246 247 247 246 245 244 242 244 247 249 232 223 245 260 260 260 262 268 278 294 316 294 242
180 183 190 242 221 239 225 244 242 241 241 245 246 246 248 252 253 251 253 254 254 253 250 250 250 248 245 246 246 236 234 237 237 250 248 261 257 270 287 288 300 299 251
196 188 211 203 212 217 228 243 250 253 252 252 247 250 254 259 262 258 255 253 255 258 258 254 253 256 251 245 247 242 239 266 241 243 247 254 262 269 276 284 298 300 272
205 197 210 219 212 223 228 231 249 260 257 248 247 253 261 266 272 272 268 258 251 258 259 256 250 253 249 244 243 247 237 244 240 239 248 253 258 265 267 268 273 277 275
245 252 244 231 211 227 229 233 237 248 251 246 247 252 256 263 271 272 270 269 257 253 248 251 246 241 243 235 242 249 250 249 252 239 246 254 263 265 261 264 273 277 276
242 242 249 248 238 237 237 237 244 250 251 249 241 245 250 254 264 269 268 266 261 248 241 241 246 238 238 238 244 239 256 253 254 249 253 269 259 258 256 267 278 274 268
237 246 250 244 237 234 236 230 239 251 254 255 250 250 248 252 256 259 261 258 254 245 238 236 240 240 237 234 239 248 248 256 252 258 271 268 253 258 271 267 267 270 266
247 234 234 232 232 230 228 229 246 254 255 256 259 260 257 254 249 254 255 251 246 243 245 233 237 239 236 233 237 248 249 253 258 263 268 257 248 256 269 265 265 262 266
265 242 222 222 223 226 236 243 250 256 263 264 265 267 265 257 249 246 252 249 240 239 237 235 231 234 234 235 240 241 247 250 259 271 258 254 249 260 272 258 258 254 251
258 233 227 224 232 240 247 258 260 256 259 256 254 252 249 246 246 247 248 246 242 242 238 232 231 232 236 234 234 235 247 251 259 256 260 247 246 258 268 267 258 257 245
260 234 232 233 242 248 252 255 252 255 260 258 253 245 254 238 241 246 248 247 242 248 236 233 231 230 233 234 233 235 234 244 267 275 259 240 247 259 274 280 261 248 235
247 252 240 230 233 246 255 258 261 258 266 268 259 258 243 234 238 241 247 242 242 241 231 234 231 230 235 235 235 244 252 252 253 254 247 249 251 273 280 275 252 237 225
250 245 246 250 256 255 256 259 260 260 258 259 246 239 233 232 233 237 244 241 234 233 226 232 231 234 240 237 237 244 240 240 241 236 238 259 276 288 284 261 222 220 219